| time (UTC) | temp F | wind direction | speed knots | gust knots | rain 1hr in | rain 24hr in | rain mn in | humidity % | barometer mb |
| 20260503222510 | 60 | 355 | 4.3 | 11.3 | 0.00 | 0.22 | 0.00 | 74 | 1012.0 |
| 20260503222011 | 59 | 347 | 4.3 | 16.5 | 0.00 | 0.22 | 0.00 | 74 | 1012.1 |
| 20260503221511 | 59 | 343 | 5.2 | 16.5 | 0.00 | 0.22 | 0.00 | 74 | 1011.9 |
| 20260503221020 | 59 | 335 | 4.3 | 11.3 | 0.00 | 0.22 | 0.00 | 75 | 1012.1 |
| 20260503221010 | 59 | 322 | 4.3 | 13.0 | 0.00 | 0.22 | 0.00 | 75 | 1012.0 |
| 20260503220512 | 59 | 324 | 4.3 | 13.0 | 0.00 | 0.22 | 0.00 | 75 | 1011.9 |
| 20260503215509 | 59 | 353 | 4.3 | 16.5 | 0.00 | 0.22 | 0.00 | 75 | 1012.0 |
| 20260503215008 | 59 | 340 | 4.3 | 16.5 | 0.00 | 0.22 | 0.00 | 75 | 1012.0 |
| 20260503214508 | 58 | 345 | 4.3 | 13.0 | 0.00 | 0.22 | 0.00 | 75 | 1011.9 |
| 20260503214008 | 58 | 342 | 3.5 | 10.4 | 0.00 | 0.22 | 0.00 | 75 | 1011.9 |
| 20260503213510 | 58 | 352 | 3.5 | 11.3 | 0.00 | 0.22 | 0.00 | 75 | 1011.9 |
| 20260503213009 | 58 | 343 | 3.5 | 11.3 | 0.00 | 0.22 | 0.00 | 75 | 1011.9 |
| 20260503212506 | 58 | 341 | 2.6 | 8.7 | 0.00 | 0.22 | 0.00 | 75 | 1011.9 |
| 20260503212013 | 58 | 1 | 2.6 | 8.7 | 0.00 | 0.22 | 0.00 | 75 | 1011.7 |
| 20260503212007 | 58 | 307 | 2.6 | 8.7 | 0.00 | 0.22 | 0.00 | 75 | 1011.7 |
| 20260503211005 | 58 | 328 | 1.7 | 6.1 | 0.00 | 0.22 | 0.00 | 75 | 1011.7 |
| 20260503210512 | 58 | 322 | 2.6 | 7.8 | 0.00 | 0.22 | 0.00 | 75 | 1011.6 |
| 20260503210506 | 58 | 332 | 1.7 | 7.8 | 0.00 | 0.22 | 0.00 | 75 | 1011.6 |
| 20260503210133 | 58 | 348 | 2.6 | 9.6 | 0.00 | 0.22 | 0.00 | 76 | 1011.7 |
| 20260503205007 | 58 | 335 | 2.6 | 9.6 | 0.00 | 0.22 | 0.00 | 76 | 1011.7 |
| 20260503204509 | 58 | 335 | 2.6 | 7.0 | 0.00 | 0.22 | 0.00 | 76 | 1011.7 |
| 20260503204008 | 58 | 339 | 2.6 | 6.1 | 0.00 | 0.22 | 0.00 | 76 | 1011.7 |
| 20260503203505 | 58 | 327 | 1.7 | 6.1 | 0.00 | 0.22 | 0.00 | 77 | 1011.6 |
| 20260503203005 | 58 | 330 | 1.7 | 7.0 | 0.00 | 0.22 | 0.00 | 77 | 1011.6 |
| 20260503202504 | 58 | 330 | 1.7 | 7.0 | 0.00 | 0.22 | 0.00 | 77 | 1011.6 |
| 20260503202002 | 58 | 318 | 1.7 | 7.8 | 0.00 | 0.22 | 0.00 | 77 | 1011.6 |
| 20260503201504 | 58 | 312 | 1.7 | 7.8 | 0.00 | 0.22 | 0.00 | 77 | 1011.5 |
| 20260503201003 | 58 | 328 | 2.6 | 6.1 | 0.00 | 0.22 | 0.00 | 77 | 1011.5 |
| 20260503200503 | 58 | 333 | 2.6 | 7.8 | 0.00 | 0.22 | 0.00 | 78 | 1011.4 |
| 20260503200003 | 58 | 318 | 1.7 | 7.8 | 0.00 | 0.22 | 0.00 | 78 | 1011.4 |
| 20260503195503 | 58 | 326 | 2.6 | 7.0 | 0.00 | 0.22 | 0.00 | 78 | 1011.4 |
| 20260503195001 | 58 | 326 | 3.5 | 10.4 | 0.00 | 0.22 | 0.00 | 78 | 1011.4 |
| 20260503194502 | 57 | 336 | 2.6 | 13.0 | 0.00 | 0.22 | 0.00 | 79 | 1011.5 |
| 20260503194000 | 57 | 348 | 2.6 | 13.0 | 0.00 | 0.22 | 0.00 | 79 | 1011.5 |
| 20260503193501 | 57 | 343 | 2.6 | 8.7 | 0.00 | 0.22 | 0.00 | 80 | 1011.4 |
| 20260503193007 | 57 | 344 | 1.7 | 5.2 | 0.00 | 0.22 | 0.00 | 80 | 1011.5 |
| 20260503193001 | 57 | 339 | 2.6 | 5.2 | 0.00 | 0.22 | 0.00 | 80 | 1011.5 |
| 20260503192628 | 57 | 356 | 0.9 | 4.3 | 0.00 | 0.22 | 0.00 | 81 | 1011.5 |
| 20260503191459 | 57 | 357 | 0.9 | 4.3 | 0.00 | 0.22 | 0.00 | 81 | 1011.7 |
| 20260503190959 | 57 | 347 | 1.7 | 5.2 | 0.00 | 0.22 | 0.00 | 82 | 1011.8 |
| 20260503190506 | 56 | 351 | 0.9 | 4.3 | 0.00 | 0.22 | 0.00 | 82 | 1011.9 |
| 20260503190501 | 57 | 347 | 1.7 | 5.2 | 0.00 | 0.22 | 0.00 | 82 | 1011.9 |
| 20260503185505 | 56 | 48 | 0.0 | 5.2 | 0.00 | 0.22 | 0.00 | 82 | 1012.0 |
| 20260503185459 | 56 | 2 | 0.9 | 5.2 | 0.00 | 0.22 | 0.00 | 82 | 1011.9 |
| 20260503184457 | 56 | 330 | 0.0 | 2.6 | 0.00 | 0.22 | 0.00 | 82 | 1012.1 |
| 20260503183959 | 56 | 330 | 0.0 | 2.6 | 0.00 | 0.22 | 0.00 | 82 | 1012.0 |
| 20260503183458 | 57 | 328 | 0.9 | 1.7 | 0.00 | 0.22 | 0.00 | 82 | 1012.1 |
| 20260503182959 | 57 | 328 | 0.9 | 2.6 | 0.00 | 0.22 | 0.00 | 82 | 1012.1 |
| 20260503182459 | 57 | 327 | 0.9 | 3.5 | 0.00 | 0.22 | 0.00 | 82 | 1012.1 |
| 20260503181956 | 57 | 327 | 1.7 | 3.5 | 0.00 | 0.22 | 0.00 | 82 | 1012.1 |
| 20260503181455 | 57 | 327 | 1.7 | 7.8 | 0.00 | 0.22 | 0.00 | 82 | 1012.1 |
| 20260503180955 | 57 | 326 | 2.6 | 7.8 | 0.00 | 0.22 | 0.00 | 82 | 1012.2 |
| 20260503180455 | 57 | 351 | 1.7 | 4.3 | 0.00 | 0.22 | 0.00 | 82 | 1012.2 |
| 20260503175955 | 57 | 351 | 1.7 | 4.3 | 0.00 | 0.22 | 0.00 | 82 | 1012.3 |
| 20260503175455 | 57 | 351 | 1.7 | 4.3 | 0.00 | 0.22 | 0.00 | 82 | 1012.3 |
| 20260503174957 | 57 | 352 | 1.7 | 5.2 | 0.00 | 0.22 | 0.00 | 82 | 1012.4 |
| 20260503174456 | 57 | 333 | 1.7 | 5.2 | 0.00 | 0.22 | 0.00 | 81 | 1012.4 |
| 20260503174124 | 58 | 320 | 1.7 | 4.3 | 0.00 | 0.22 | 0.00 | 81 | 1012.4 |
| 20260503174002 | 57 | 339 | 1.7 | 4.3 | 0.00 | 0.22 | 0.00 | 81 | 1012.4 |
| 20260503173956 | 57 | 345 | 1.7 | 4.3 | 0.00 | 0.22 | 0.00 | 81 | 1012.4 |
| 20260503172457 | 58 | 335 | 1.7 | 4.3 | 0.00 | 0.22 | 0.00 | 81 | 1012.5 |
| 20260503171958 | 58 | 337 | 1.7 | 4.3 | 0.00 | 0.22 | 0.00 | 81 | 1012.5 |
| 20260503171953 | 58 | 338 | 1.7 | 4.3 | 0.00 | 0.22 | 0.00 | 81 | 1012.5 |
| 20260503170954 | 58 | 338 | 1.7 | 4.3 | 0.00 | 0.22 | 0.00 | 81 | 1012.6 |
| 20260503170501 | 58 | 336 | 1.7 | 7.8 | 0.00 | 0.22 | 0.00 | 81 | 1012.6 |
| 20260503170454 | 58 | 337 | 1.7 | 4.3 | 0.00 | 0.22 | 0.00 | 81 | 1012.5 |
| 20260503150941 | 59 | 37 | 1.7 | 6.1 | 0.00 | 0.22 | 0.00 | 81 | 1012.8 |
| 20260503150441 | 59 | 341 | 1.7 | 5.2 | 0.00 | 0.22 | 0.00 | 81 | 1012.7 |
| 20260503130937 | 60 | 332 | 3.5 | 7.8 | 0.00 | 0.22 | 0.22 | 79 | 1013.3 |
| 20260503130435 | 60 | 327 | 2.6 | 7.8 | 0.00 | 0.22 | 0.22 | 78 | 1013.3 |
| 20260503110433 | 61 | 353 | 0.9 | 2.6 | 0.00 | 0.22 | 0.22 | 73 | 1013.1 |
| 20260503081415 | 63 | 295 | 1.7 | 6.1 | 0.00 | 0.22 | 0.22 | 63 | 1011.7 |
| 20260503080914 | 63 | 294 | 1.7 | 6.1 | 0.00 | 0.22 | 0.22 | 62 | 1011.7 |
| 20260503080413 | 63 | 293 | 1.7 | 7.8 | 0.00 | 0.22 | 0.22 | 61 | 1011.8 |
| 20260503072912 | 65 | 301 | 0.9 | 3.5 | 0.00 | 0.22 | 0.22 | 61 | 1011.6 |
| 20260503072413 | 65 | 301 | 1.7 | 5.2 | 0.00 | 0.22 | 0.22 | 61 | 1011.6 |
| 20260503071911 | 65 | 301 | 1.7 | 5.2 | 0.00 | 0.22 | 0.22 | 61 | 1011.6 |
| 20260503071413 | 65 | 301 | 1.7 | 5.2 | 0.00 | 0.22 | 0.22 | 60 | 1011.5 |
| 20260503070913 | 65 | 301 | 1.7 | 5.2 | 0.00 | 0.22 | 0.22 | 59 | 1011.4 |
| 20260503070413 | 66 | 301 | 1.7 | 7.0 | 0.00 | 0.22 | 0.22 | 58 | 1011.4 |
| 20260503054905 | 65 | 29 | 3.5 | 7.8 | 0.00 | 0.22 | 0.22 | 72 | 1011.0 |
| 20260503054403 | 65 | 326 | 2.6 | 7.0 | 0.00 | 0.22 | 0.22 | 74 | 1011.0 |
| 20260503053902 | 65 | 299 | 2.6 | 9.6 | 0.00 | 0.22 | 0.22 | 75 | 1011.1 |
| 20260503053402 | 65 | 297 | 2.6 | 9.6 | 0.00 | 0.22 | 0.22 | 75 | 1011.1 |
| 20260503052907 | 65 | 299 | 2.6 | 7.8 | 0.00 | 0.22 | 0.22 | 75 | 1011.0 |
| 20260503052903 | 65 | 312 | 2.6 | 7.8 | 0.00 | 0.22 | 0.22 | 75 | 1011.1 |
| 20260503052006 | 65 | 295 | 2.6 | 9.6 | 0.00 | 0.22 | 0.22 | 75 | 1011.0 |
| 20260503050859 | 65 | 297 | 3.5 | 7.0 | 0.00 | 0.22 | 0.22 | 75 | 1011.1 |
| 20260503050402 | 65 | 351 | 3.5 | 8.7 | 0.00 | 0.22 | 0.22 | 76 | 1011.1 |
| 20260503045859 | 65 | 321 | 4.3 | 9.6 | 0.00 | 0.22 | 0.22 | 76 | 1011.1 |
| 20260503045359 | 65 | 313 | 4.3 | 9.6 | 0.00 | 0.22 | 0.22 | 76 | 1010.9 |
| 20260503044900 | 65 | 322 | 4.3 | 11.3 | 0.00 | 0.22 | 0.22 | 77 | 1011.0 |
| 20260503044401 | 65 | 316 | 4.3 | 11.3 | 0.00 | 0.22 | 0.22 | 77 | 1010.9 |
| 20260503043906 | 65 | 320 | 4.3 | 10.4 | 0.00 | 0.22 | 0.22 | 79 | 1010.8 |
| 20260503043901 | 65 | 339 | 3.5 | 11.3 | 0.00 | 0.22 | 0.22 | 78 | 1011.0 |
| 20260503042903 | 65 | 325 | 4.3 | 10.4 | 0.00 | 0.22 | 0.22 | 79 | 1010.8 |
| 20260503042405 | 65 | 288 | 5.2 | 11.3 | 0.00 | 0.22 | 0.22 | 80 | 1010.9 |
| 20260503041855 | 65 | 337 | 6.1 | 12.2 | 0.00 | 0.22 | 0.22 | 80 | 1010.9 |
| 20260503041357 | 65 | 305 | 6.1 | 13.9 | 0.00 | 0.22 | 0.22 | 79 | 1010.8 |
| 20260503040856 | 67 | 300 | 4.3 | 13.9 | 0.00 | 0.22 | 0.22 | 79 | 1010.8 |
| 20260503040355 | 68 | 301 | 4.3 | 12.2 | 0.00 | 0.22 | 0.22 | 80 | 1010.6 |
| 20260503035855 | 68 | 336 | 5.2 | 13.0 | 0.00 | 0.22 | 0.22 | 80 | 1010.6 |
| 20260503035355 | 68 | 335 | 5.2 | 13.0 | 0.00 | 0.22 | 0.22 | 79 | 1010.6 |
| 20260503034855 | 69 | 22 | 6.1 | 12.2 | 0.00 | 0.22 | 0.22 | 78 | 1010.6 |
| 20260503034355 | 69 | 328 | 5.2 | 12.2 | 0.00 | 0.22 | 0.22 | 77 | 1010.5 |
| 20260503033855 | 69 | 337 | 4.3 | 13.0 | 0.00 | 0.22 | 0.22 | 77 | 1010.5 |
| 20260503033355 | 69 | 297 | 3.5 | 13.0 | 0.00 | 0.22 | 0.22 | 77 | 1010.4 |
| 20260503032901 | 69 | 334 | 4.3 | 11.3 | 0.00 | 0.22 | 0.22 | 77 | 1010.5 |
| 20260503032855 | 69 | 333 | 3.5 | 10.4 | 0.00 | 0.22 | 0.22 | 77 | 1010.4 |
| 20260503031855 | 69 | 320 | 5.2 | 13.9 | 0.00 | 0.22 | 0.22 | 76 | 1010.6 |
| 20260503031355 | 69 | 314 | 7.0 | 13.9 | 0.00 | 0.22 | 0.22 | 76 | 1010.7 |
| 20260503030855 | 69 | 333 | 6.1 | 13.9 | 0.00 | 0.22 | 0.22 | 76 | 1010.6 |
| 20260503030401 | 69 | 346 | 7.0 | 17.4 | 0.00 | 0.22 | 0.22 | 75 | 1010.6 |
| 20260503030355 | 69 | 301 | 7.0 | 15.6 | 0.00 | 0.22 | 0.22 | 76 | 1010.6 |
| 20260503025356 | 69 | 291 | 7.0 | 17.4 | 0.01 | 0.22 | 0.22 | 75 | 1010.7 |
| 20260503024854 | 69 | 3 | 7.0 | 13.9 | 0.01 | 0.22 | 0.22 | 75 | 1010.9 |
| 20260503024357 | 69 | 341 | 7.0 | 17.4 | 0.01 | 0.22 | 0.22 | 77 | 1010.7 |
| 20260503024351 | 69 | 335 | 7.0 | 15.6 | 0.01 | 0.22 | 0.22 | 76 | 1010.8 |
| 20260503024022 | 69 | 349 | 5.2 | 19.1 | 0.01 | 0.22 | 0.22 | 80 | 1010.7 |
| 20260503022851 | 69 | 357 | 4.3 | 19.1 | 0.01 | 0.22 | 0.22 | 83 | 1010.7 |
| 20260503022351 | 68 | 354 | 3.5 | 9.6 | 0.01 | 0.22 | 0.22 | 85 | 1010.6 |
| 20260503021852 | 67 | 1 | 3.5 | 12.2 | 0.01 | 0.22 | 0.22 | 87 | 1010.6 |
| 20260503021349 | 67 | 351 | 2.6 | 12.2 | 0.02 | 0.22 | 0.22 | 88 | 1010.5 |
| 20260503020848 | 67 | 354 | 2.6 | 9.6 | 0.04 | 0.22 | 0.22 | 89 | 1010.6 |
| 20260503020351 | 66 | 354 | 3.5 | 9.6 | 0.06 | 0.22 | 0.22 | 89 | 1010.7 |
| 20260503020346 | 66 | 310 | 2.6 | 9.6 | 0.04 | 0.22 | 0.22 | 89 | 1010.6 |
| 20260503015345 | 65 | 326 | 3.5 | 9.6 | 0.05 | 0.21 | 0.21 | 90 | 1010.7 |
| 20260503014847 | 65 | 335 | 3.5 | 12.2 | 0.05 | 0.21 | 0.21 | 90 | 1010.8 |
| 20260503014346 | 65 | 352 | 4.3 | 13.0 | 0.05 | 0.21 | 0.21 | 89 | 1010.8 |
| 20260503013851 | 64 | 339 | 2.6 | 11.3 | 0.06 | 0.21 | 0.21 | 89 | 1010.4 |
| 20260503013845 | 64 | 6 | 3.5 | 13.0 | 0.05 | 0.21 | 0.21 | 89 | 1010.9 |
| 20260503012846 | 65 | 339 | 2.6 | 7.8 | 0.07 | 0.21 | 0.21 | 89 | 1010.6 |
| 20260503012345 | 65 | 335 | 2.6 | 7.8 | 0.08 | 0.21 | 0.21 | 89 | 1010.6 |
| 20260503011850 | 65 | 8 | 3.5 | 9.6 | 0.09 | 0.20 | 0.20 | 89 | 1010.4 |
| 20260503011844 | 65 | 327 | 2.6 | 9.6 | 0.09 | 0.21 | 0.21 | 89 | 1010.8 |
| 20260503010845 | 65 | 12 | 4.3 | 10.4 | 0.09 | 0.18 | 0.18 | 89 | 1010.6 |
| 20260503010345 | 65 | 15 | 3.5 | 10.4 | 0.09 | 0.18 | 0.18 | 89 | 1010.6 |
| 20260503005844 | 65 | 2 | 2.6 | 12.2 | 0.09 | 0.17 | 0.17 | 89 | 1011.0 |
| 20260503005346 | 65 | 25 | 2.6 | 12.2 | 0.11 | 0.17 | 0.17 | 88 | 1010.7 |
| 20260503004845 | 65 | 12 | 2.6 | 7.8 | 0.13 | 0.17 | 0.17 | 88 | 1011.0 |
| 20260503004345 | 65 | 6 | 3.5 | 13.9 | 0.14 | 0.17 | 0.17 | 88 | 1011.0 |
| 20260503003845 | 65 | 0 | 3.5 | 13.9 | 0.16 | 0.17 | 0.17 | 88 | 1010.8 |
| 20260503003345 | 65 | 12 | 3.5 | 13.0 | 0.15 | 0.16 | 0.16 | 88 | 1011.2 |
| 20260503002843 | 65 | 0 | 3.5 | 13.0 | 0.13 | 0.14 | 0.15 | 87 | 1011.0 |
| 20260503002344 | 65 | 16 | 2.6 | 8.7 | 0.13 | 0.13 | 0.13 | 87 | 1011.3 |
| 20260503001843 | 65 | 16 | 2.6 | 6.1 | 0.12 | 0.12 | 0.12 | 86 | 1011.5 |
| 20260503001343 | 66 | 24 | 2.6 | 6.1 | 0.10 | 0.10 | 0.11 | 85 | 1011.7 |
| 20260503000844 | 66 | 343 | 2.6 | 8.7 | 0.09 | 0.09 | 0.10 | 84 | 1011.9 |
| 20260503000342 | 66 | 336 | 2.6 | 8.7 | 0.09 | 0.09 | 0.09 | 84 | 1011.9 |
| 20260502235843 | 67 | 337 | 2.6 | 7.8 | 0.07 | 0.07 | 0.07 | 82 | 1012.0 |
| 20260502235352 | 67 | 19 | 3.5 | 7.0 | 0.04 | 0.04 | 0.04 | 80 | 1011.8 |
| 20260502235344 | 67 | 338 | 2.6 | 7.8 | 0.06 | 0.06 | 0.06 | 81 | 1011.9 |
| 20260502234343 | 68 | 355 | 3.5 | 10.4 | 0.02 | 0.02 | 0.02 | 78 | 1012.1 |
| 20260502233850 | 69 | 355 | 4.3 | 11.3 | 0.01 | 0.01 | 0.01 | 75 | 1011.7 |
| 20260502233844 | 68 | 350 | 4.3 | 10.4 | 0.01 | 0.01 | 0.01 | 76 | 1012.0 |
| 20260502232846 | 70 | 11 | 2.6 | 7.8 | 0.00 | 0.00 | 0.00 | 72 | 1011.4 |
| 20260502232840 | 69 | 340 | 3.5 | 11.3 | 0.01 | 0.01 | 0.01 | 74 | 1011.6 |
| 20260502231840 | 70 | 37 | 2.6 | 12.2 | 0.00 | 0.00 | 0.00 | 71 | 1011.2 |
| 20260502231342 | 70 | 329 | 3.5 | 12.2 | 0.00 | 0.00 | 0.00 | 71 | 1011.7 |
| 20260502230847 | 69 | 334 | 3.5 | 11.3 | 0.00 | 0.00 | 0.00 | 72 | 1012.2 |
| 20260502230841 | 69 | 59 | 3.5 | 9.6 | 0.00 | 0.00 | 0.00 | 72 | 1012.0 |
| 20260502225848 | 69 | 28 | 3.5 | 10.4 | 0.00 | 0.00 | 0.00 | 72 | 1012.1 |
| 20260502225842 | 69 | 328 | 3.5 | 11.3 | 0.00 | 0.00 | 0.00 | 72 | 1012.2 |
| 20260502224842 | 69 | 352 | 3.5 | 10.4 | 0.00 | 0.00 | 0.00 | 73 | 1011.7 |
| 20260502224341 | 69 | 21 | 3.5 | 9.6 | 0.00 | 0.00 | 0.00 | 73 | 1011.3 |
| 20260502223842 | 69 | 356 | 3.5 | 11.3 | 0.00 | 0.00 | 0.00 | 74 | 1011.2 |
| 20260502223339 | 68 | 9 | 2.6 | 11.3 | 0.00 | 0.00 | 0.00 | 74 | 1011.1 |
| 20260502222844 | 68 | 358 | 2.6 | 7.8 | 0.00 | 0.00 | 0.00 | 75 | 1011.2 |
| 20260502222838 | 68 | 347 | 3.5 | 7.8 | 0.00 | 0.00 | 0.00 | 75 | 1011.2 |